Terminal Aerodrome Forecast
Issued by NWS Atlanta, GA

Home | Current Version | Previous Version | Text Only | Print | Product List | Glossary On
Versions: 1 2 3 4 5 6 7 8 9 10 11 12 13 14 15 16 17 18 19 20 21 22 23 24 25 26 27 28 29 30 31 32 33 34 35 36 37 38 39 40
000
FTUS42 KFFC 201733
TAFATL
TAF
KATL 201733Z 2018/2124 04005KT P6SM BKN009 OVC015
     FM202100 02003KT P6SM BKN025
     FM210500 05003KT 5SM BR OVC019
     FM210800 05004KT 4SM BR OVC009
     FM211200 06004KT 2SM BR OVC005
     FM211400 07005KT 3SM BR BKN007 OVC015
     FM211600 08006KT P6SM BKN015=

USA.gov is the U.S. government's official web portal to all federal, state and local government web resources and services.